Regional Weather Roundup
Issued by NWS State College, PA

Home | Current Version | Previous Version | Graphics & Text | Print | Product List | Glossary On
Versions: 1 2 3 4 5 6 7 8 9 10 11 12 13 14 15 16 17 18 19 20 21 22 23 24 25 26 27 28 29 30 31 32 33 34 35 36 37 38 39 40 41 42 43 44 45 46 47 48 49 50
000
ASUS41 KCTP 250403
RWRCTP

REGIONAL WEATHER ROUNDUP
NATIONAL WEATHER SERVICE STATE COLLEGE PA
1100 PM EST SAT JAN 24 2015

Note: "fair" indicates few or no clouds below 12,000 feet with no
significant weather and/or obstructions to visibility.

* = STATION THAT DOES NOT REPORT PRECIPITATION /E.G. RAIN...SNOW...ETC/
    THUNDER OR FOG.

PAZ002>004-007>009-013>016-020>023-029>032-250500-
WESTERN PENNSYLVANIA

CITY           SKY/WX    TMP DP  RH WIND       PRES   REMARKS
ERIE           CLOUDY    33  29  85 W14G24    29.61S FOG
MEADVILLE      CLOUDY    30  28  92 W9        29.60S FOG
FRANKLIN*      CLOUDY    28  27  93 W14       29.62R
NEW CASTLE     CLOUDY    31  29  92 SW9       29.68R FOG
BEAVER COUNTY  NOT AVBL
BUTLER*        CLOUDY    30  28  93 SW10      29.68R
PITTSBURGH INT CLOUDY    31  30  96 W10       29.68R FOG
PITTSBURGH     CLOUDY    31  26  82 W14       29.67R
INDIANA*       CLOUDY    30  28  93 W15G21    29.67R FOG
LATROBE        LGT RAIN  30  30 100 SW14      29.70R
WASHINGTON CO* CLOUDY    30  28  93 SW12G18   29.72R
$$

PAZ004>006-010>012-017>019-024>028-033>037-041-042-045-046-049>053-250500-
CENTRAL PENNSYLVANIA

CITY           SKY/WX    TMP DP  RH WIND       PRES   REMARKS
BRADFORD       LGT SNOW  26  22  84 W9        29.51S FOG
DUBOIS         CLOUDY    27  26  96 W14       29.57R FOG
CLEARFIELD     CLOUDY    28  26  92 W15       29.58R FOG
JOHNSTOWN      FRZ RAIN  26  24  92 W21G32    29.57R VSB 1/2 WCI  12
ALTOONA        CLOUDY    30  26  85 W16G23    29.61R
STATE COLLEGE  CLOUDY    31  26  81 W17G23    29.58R
WILLIAMSPORT   CLOUDY    33  24  69 W13       29.55R
SELINSGROVE    CLOUDY    35  25  66 W9        29.59R
FT INDIANTOWN  CLOUDY    34  25  68 W16       29.57R
CAPITAL CITY   CLOUDY    36  25  64 NW12      29.59S
HARRISBURG     CLOUDY    34  26  72 NW13      29.59R
YORK           CLOUDY    35  26  69 W7        29.59S
$$

PAZ038>040-043-044-047-048-054-055-060>062-067>071-250500-
EASTERN PENNSYLVANIA

CITY           SKY/WX    TMP DP  RH WIND       PRES   REMARKS
SCRANTON       CLOUDY    33  24  69 W12       29.48R
MOUNT POCONO   CLOUDY    29  22  75 NW14      29.41R
ALLENTOWN      CLOUDY    35  24  64 W12G23    29.52R
QUAKERTOWN*    NOT AVBL
READING        CLOUDY    34  24  67 W12       29.56R
LANCASTER      CLOUDY    34  25  69 W16       29.56S
COATESVILLE    MOCLDY    34  28  80 W13G21    29.56R
POTTSTOWN      CLOUDY    33  24  69 W12G20    29.55R
BLUE BELL      PTCLDY    34  27  75 W6        29.54R
DOYLESTOWN     CLOUDY    33  24  69 W8        29.52R
WILLOW GROVE   NOT AVBL
NORTH PHILA    CLEAR     36  23  59 W15       29.56R
PHILADELPHIA   PTCLDY    36  24  62 W15       29.58R
$$



USA.gov is the U.S. government's official web portal to all federal, state and local government web resources and services.